Location: Trout Lake
(45.9980°N, 121.5270°W)
Time: 07:38:27
(UTC-08:00)

Daily predictions for brighter satellites

Satellite Brightness Start Highest point End
(mag) Time Altitude Azimuth Time Altitude Azimuth Time Altitude Azimuth
Cosmos 1782 4.2 16:54:36 10° SSW 16:58:24 41° WNW 17:02:15 10° N
CZ-3A R/B 4.5 16:32:41 10° SW 17:01:11 85° NW 17:07:05 10° NE
MOS 1 4.4 16:59:27 10° SSE 17:05:00 59° ENE 17:10:33 10° N
Cosmos 1300 Rocket 4.2 17:00:57 10° NNW 17:05:14 59° W 17:09:28 10° S
CORIOLIS 4.4 17:01:06 10° SE 17:06:16 48° ENE 17:11:27 10° N
SMAP 3.2 17:03:58 10° SSE 17:08:28 52° ENE 17:12:59 10° N
PAYLOAD A 3.9 17:03:48 10° SSE 17:08:35 79° ENE 17:13:34 10° NNW
YAOGAN 1 2.8 17:04:28 10° SE 17:08:37 46° ENE 17:12:47 10° N
SPOT 3 Rocket 3.6 17:03:44 10° SSE 17:08:50 58° ENE 17:13:55 10° N
Abrixas 2.7 17:10:23 10° W 17:13:18 53° N 17:15:44 14° ENE
COSMOS 2406 3.2 17:08:19 10° NNW 17:14:04 84° ENE 17:19:49 10° SSE
Cosmos 2278 Rocket 3.5 17:11:12 10° SE 17:15:05 19° E 17:18:28 12° ENE
OTV 4 3.3 17:15:17 10° SW 17:16:58 14° S 17:18:40 10° SSE
SL-8 Rocket 4.0 17:11:42 10° N 17:17:48 58° ENE 17:23:49 10° SSE
Cosmos 1378 Rocket 3.6 17:14:20 10° S 17:18:38 81° W 17:22:58 10° N
Cosmos 1484 Rocket 3.6 17:20:43 10° SE 17:23:55 27° ENE 17:27:05 10° N
Meteor 1-5 Rocket 4.1 17:19:19 10° N 17:24:43 78° E 17:30:14 10° SSE
USA 32 4.2 17:20:01 10° SSE 17:25:01 49° E 17:30:03 10° NNE
SJ-7 4.5 17:20:55 10° SSE 17:25:05 65° ENE 17:29:19 10° N
IDEFIX/ARIANE 42P 2.5 17:20:05 10° SSE 17:25:16 75° ENE 17:30:27 10° N
Cosmos 2366 rocket 4.2 17:21:41 10° N 17:27:53 52° ENE 17:34:02 10° SSE
Cosmos 1455 Rocket 3.5 17:23:57 10° N 17:28:07 40° ENE 17:32:16 10° SE
Cosmos 2218 Rocket 4.0 17:23:37 10° N 17:29:53 60° ENE 17:36:01 10° SSE
Cosmos 372 Rocket 4.0 17:24:47 10° SSW 17:30:02 81° ESE 17:35:19 10° NNE
Meteor 2-19 Rocket 4.4 17:25:10 10° N 17:31:13 65° E 17:37:13 10° SSE
APEX 4.4 17:25:06 10° SSW 17:31:44 80° WNW 17:36:57 10° NNE
Cosmos 2181 Rocket 4.1 17:26:41 10° S 17:33:02 87° E 17:39:30 10° N
CZ-4 R/B 4.4 17:29:13 10° SSE 17:33:18 63° ENE 17:37:26 10° N
Cosmos 1959 Rocket 4.5 17:27:39 10° N 17:33:47 64° E 17:39:58 10° SSE
Cosmos 2082 Rocket 3.2 17:32:22 10° N 17:36:54 24° NE 17:39:41 17° E
USA 234 3.4 17:32:50 13° NE 17:38:47 77° NNW 17:45:19 10° WSW
ATLAS CENTAUR R/B 4.0 17:40:20 10° NW 17:41:48 11° NNW 17:43:13 10° N
Cosmos 1833 Rocket 3.8 17:38:16 10° N 17:42:44 23° NE 17:44:32 20° ENE
Cosmos 1125 Rocket 4.2 17:39:24 10° SW 17:44:37 55° WNW 17:49:51 10° NNE
Thor Agena Rocket 3.6 17:39:29 10° NNE 17:44:42 90° S 17:49:57 10° SSW
Cosmos 1500 4.0 17:41:51 10° NNE 17:45:14 29° ENE 17:48:37 10° SE
Cosmos 494 Rocket 4.0 17:40:03 10° NNW 17:45:15 61° ENE 17:50:27 10° SSE
Cosmos 1536 4.3 17:42:17 10° NNW 17:46:06 40° W 17:49:54 10° SSW
BREEZE M DEB (TANK) 2.8 17:43:15 10° WNW 17:46:08 56° NNE 17:50:35 19° E
Okean 1 3.9 17:44:38 10° SSE 17:48:19 34° E 17:50:17 22° NE
ISS -3.2 17:50:09 10° SW 17:53:24 63° SSE 17:54:29 37° E
NOAA 12 4.5 17:54:00 10° SE 17:58:52 40° ENE 18:03:45 10° N
Cosmos 2251 Rocket 3.5 17:53:57 10° NNW 17:59:21 90° WSW 18:04:41 10° SSE
ATLAS 2AS CENTAUR R/B 3.1 17:52:10 10° NW 18:00:20 85° SW 18:07:58 10° SSE
SL-27 R/B 3.0 17:57:47 10° NNW 18:01:26 61° WSW 18:05:02 10° S
Cosmos 2263 Rocket 4.1 18:00:01 10° WSW 18:04:32 24° NW 18:09:07 10° N
Meteor 1-18 Rocket 4.1 17:59:22 10° S 18:04:58 74° E 18:10:43 10° NNE
Cosmos 1812 2.6 18:04:12 10° S 18:08:03 82° E 18:10:49 19° NNE
Cosmos 1346 Rocket 3.5 18:05:26 10° SSE 18:08:21 33° ESE 18:08:21 33° ESE
CZ-4 R/B 3.9 18:10:32 10° SSW 18:14:01 25° W 18:17:30 10° NW
COSMO-SKYMED 1 2.4 18:12:01 21° NNE 18:14:54 72° ESE 18:19:14 10° S
Cosmos 1544 Rocket 4.5 18:11:55 10° NNW 18:16:14 50° W 18:20:33 10° SSW
CZ-3B DEB 2.4 18:14:52 10° SW 18:18:59 76° SE 18:24:12 27° ENE
MSX 4.4 18:14:11 10° S 18:19:50 58° W 18:25:32 10° NNW
Meteor 2-21 4.3 18:17:49 10° N 18:24:03 76° E 18:30:12 10° SSE
Nadezhda 3 Rocket 3.9 18:20:59 10° S 18:27:03 60° E 18:33:13 10° NNE
CZ-2C R/B 4.4 18:22:59 10° SSW 18:27:20 30° W 18:31:49 10° NNW
Cosmos 1975 3.0 18:23:24 10° NNW 18:27:29 71° W 18:31:31 10° S
GEOS 3 Rocket 3.9 18:23:47 10° SSE 18:28:51 64° SW 18:33:58 10° NW
Cosmos 1844 Rocket 3.3 18:24:48 10° SW 18:30:17 54° WNW 18:34:31 17° NNE
Cosmos 1238 Rocket 3.7 18:28:27 10° SW 18:31:11 34° WNW 18:32:13 26° NW
Cosmos 1536 Rocket 4.1 18:33:57 10° SSW 18:38:21 59° WNW 18:41:47 16° N
BREEZE-M DEB (TANK) 3.8 18:33:35 10° W 18:39:47 51° N 18:39:47 51° N
Cosmos 1844 4.1 18:35:29 10° SW 18:40:57 59° WNW 18:44:15 24° NNE
Cosmos 2297 4.1 18:36:45 10° S 18:41:26 44° SE 18:41:26 44° SE
Meteor 2-14 Rocket 4.3 18:41:45 10° N 18:47:57 84° E 18:54:06 10° S
Meteor 1-19 Rocket 4.1 18:48:46 10° S 18:54:29 69° E 18:54:40 68° E
FengYun 1-2 T 4.4 18:56:47 57° NNE 18:56:47 57° NNE 19:01:31 10° N
Cosmos 2278 Rocket 2.4 18:52:56 10° SW 18:58:34 69° WNW 19:00:22 43° N
Meteor 1-13 Rocket 4.3 19:03:51 10° SSW 19:09:30 76° WNW 19:11:11 47° N
USA 234 4.0 19:20:11 37° N 19:21:18 39° NNW 19:27:15 10° W
Cosmos 2082 Rocket 2.4 19:15:53 10° NNW 19:21:30 67° WSW 19:21:38 67° WSW
Cosmos 1934 Rocket 4.0 19:20:55 10° N 19:35:12 - S 19:26:26 70° NW
BREEZE-M R/B 4.0 19:19:12 10° WSW 19:26:15 63° WSW 19:26:15 63° WSW
Cosmos 1833 Rocket 3.1 19:21:35 10° NNW 19:26:18 59° WNW 19:26:18 59° WNW
ISS 0.2 19:26:58 10° W 19:27:10 11° W 19:27:10 11° W
ATLAS 3B CENTAUR R/B 4.5 19:26:21 10° WSW 19:35:35 22° SSW 19:37:44 20° S
NOSS 3-4 (A) 3.9 19:28:58 10° NW 19:34:47 64° NNW 19:34:47 64° NNW
NOSS 3-4 (C) 3.9 19:29:04 10° NW 19:34:52 63° NNW 19:34:52 63° NNW
CZ-3B DEB 4.2 20:48:38 10° WNW 20:53:06 44° NW 20:53:06 44° NW
